Content
SEND FEEDBACK

Australia Flag

TERREY HILLS, NEW SOUTH WALES


Home > Oceania > Australia > New South Wales
Elevation: 40 meters     Latitude: 33 49S     Longitude: 151 09E

WEATHER
 
SELECT A DAY
Number of Records: 342,756;   Date Range: 7/1/96 - 3/22/16
 
SHARE

PRINT THIS DATA

[ ← Previous Day ]
WEATHER ALMANAC - 23 JANUARY, 2013
[ Next Day → ]
[ °F ]   °C
Weather ElementAverageHighLow
Temperature21.7 °C23 °C (12:45 pm)21 °C (12:30 am)
Dewpoint17.9 °C20 °C (12:00 am)17 °C (8:00 am)
Humidity77.8 %94 % (12:30 am)62 % (2:00 pm)
Barometer1014.9 hPa1017.9 hPa (11:00 pm)1011.2 hPa (12:00 am)
Wind Speed36.5 km/h50.1 km/h (1:30 am)
Wind Gust55.5 km/h (12:45 pm)
Weather ElementAverage
Visibility10.8 km
Wind DirectionSSW (188.7 °)

Weather ElementTotal
Precipitation---
Cooling Degree Days3.7 (Base 18.3)
Growing Degree Days12 (Base 10)
Averaged from 63 records on 23 January, 2013
WEATHER CONDITIONS BREAKOUT
WIND DIRECTION BREAKOUT
WEATHER BY HOUR - 23 JANUARY, 2013
[ °F ]   °C
Local TimeTemperatureDewpointHumidityBarometerVisibilityWind DirectionWind SpeedGust SpeedPrecipitationEventsConditions
12:00 AM22 °C20 °C88 %1011.2 hPa8 kmSouth (190°)48.1 km/hMostly Cloudy
12:30 AM21 °C20 °C94 %1011.2 hPa8 kmSouth (190°)46.3 km/hMostly Cloudy
1:00 AM21 °C19 °C88 %1011.2 hPa8 kmSouth (190°)48.1 km/hMostly Cloudy
1:30 AM21 °C19 °C88 %1011.2 hPa8 kmSouth (190°)50.1 km/hMostly Cloudy
2:00 AM21.1 °C19.4 °C85 %1012.2 hPaSouth (190°)42.6 km/h
2:00 AM21 °C19 °C88 %1011.2 hPa9 kmSouth (190°)42.6 km/hMostly Cloudy
2:30 AM21 °C19 °C88 %1012.2 hPa9 kmSouth (190°)38.9 km/hMostly Cloudy
3:00 AM21 °C19 °C88 %1011.2 hPa9 kmSouth (190°)40.7 km/hMostly Cloudy
3:00 AM21.1 °C18.9 °C83 %1011.9 hPa9.7 kmSouth (190°)40.7 km/hHaze
3:30 AM21 °C19 °C88 %1012.2 hPa9 kmSouth (190°)42.6 km/hMostly Cloudy
4:00 AM21 °C19 °C88 %1012.2 hPa9 kmSouth (190°)40.7 km/hMostly Cloudy
4:30 AM21 °C18 °C83 %1012.2 hPa9 kmSSW (200°)37 km/hMostly Cloudy
5:00 AM21.1 °C18.3 °C79 %1012.2 hPaSSW (200°)38.9 km/h
5:00 AM21 °C18 °C83 %1012.2 hPa9 kmSSW (200°)38.9 km/hMostly Cloudy
5:30 AM21 °C18 °C83 %1012.2 hPa9 kmSSW (200°)37 km/hMostly Cloudy
6:00 AM21 °C18 °C83 %1013.2 hPa10 kmSSW (200°)35.2 km/hMostly Cloudy
6:00 AM21.1 °C17.8 °C77 %1013.2 hPa11.3 kmSSW (200°)35.2 km/hHaze
6:30 AM21 °C18 °C83 %1013.2 hPa10 kmSSW (210°)27.8 km/hMostly Cloudy
6:54 AM21 °C18 °C83 %1014.2 hPa10 kmSSW (200°)31.5 km/hMostly Cloudy
7:00 AM21 °C18 °C83 %1014.2 hPa10 kmSSW (200°)29.6 km/hMostly Cloudy
7:30 AM21 °C18 °C83 %1014.2 hPa10 kmSSW (200°)29.6 km/hMostly Cloudy
8:00 AM21.1 °C17.2 °C72 %1015.2 hPaSSW (200°)33.3 km/h
8:00 AM21 °C17 °C78 %1015.2 hPa10 kmSSW (200°)33.3 km/hMostly Cloudy
8:30 AM21 °C18 °C83 %1015.2 hPa10 kmSSW (200°)33.3 km/hMostly Cloudy
9:00 AM21 °C18 °C83 %1015.2 hPa10 kmSSW (200°)31.5 km/hMostly Cloudy
9:00 AM21.7 °C17.8 °C74 %1015.6 hPa17.7 kmSSW (200°)31.5 km/hHaze
10:00 AM21 °C17 °C78 %1015.2 hPa10 kmSouth (190°)35.2 km/hMostly Cloudy
10:30 AM22 °C17 °C73 %1015.2 hPa10 kmSouth (190°)38.9 km/hMostly Cloudy
11:00 AM21.7 °C17.8 °C72 %1016.3 hPaSouth (190°)37 km/h
11:00 AM21 °C18 °C83 %1016.3 hPa10 kmSouth (190°)37 km/hMostly Cloudy
11:30 AM22 °C17 °C73 %1016.3 hPa10 kmSouth (190°)40.7 km/hMostly Cloudy
12:00 PM22 °C17 °C73 %1016.3 hPa10 kmSouth (190°)38.9 km/hMostly Cloudy
12:00 PM22.2 °C17.2 °C67 %1016.3 hPa19.3 kmSouth (190°)38.9 km/hHaze
12:45 PM23 °C17 °C69 %1015.2 hPa10 kmSouth (190°)37 km/h55.5 km/hMostly Cloudy
1:00 PM23 °C17 °C69 %1015.2 hPa10 kmSouth (180°)37 km/hMostly Cloudy
1:30 PM23 °C18 °C73 %1015.2 hPa10 kmSouth (190°)40.7 km/hMostly Cloudy
2:00 PM22.8 °C17.2 °C62 %1015.9 hPaSouth (180°)42.6 km/h
2:00 PM23 °C17 °C69 %1015.2 hPa10 kmSouth (180°)42.6 km/hMostly Cloudy
2:30 PM22 °C17 °C73 %1015.2 hPa10 kmSouth (180°)38.9 km/hMostly Cloudy
3:00 PM23 °C17 °C69 %1015.2 hPa10 kmSouth (180°)38.9 km/hMostly Cloudy
3:00 PM22.2 °C17.2 °C66 %1015.6 hPa25.7 kmSouth (180°)38.9 km/hPartly Cloudy
3:30 PM22 °C17 °C73 %1015.2 hPa10 kmSouth (180°)40.7 km/hMostly Cloudy
4:00 PM23 °C18 °C73 %1015.2 hPa10 kmSouth (190°)37 km/hMostly Cloudy
4:30 PM22 °C17 °C73 %1015.2 hPa10 kmSouth (180°)38.9 km/hMostly Cloudy
5:00 PM22.2 °C17.8 °C69 %1015.6 hPaSouth (180°)35.2 km/h
5:00 PM22 °C18 °C78 %1015.2 hPa10 kmSouth (180°)35.2 km/hMostly Cloudy
5:30 PM22 °C18 °C78 %1015.2 hPa10 kmSouth (180°)35.2 km/hMostly Cloudy
6:00 PM22 °C18 °C78 %1015.2 hPa10 kmSouth (190°)33.3 km/hMostly Cloudy
6:00 PM21.7 °C17.8 °C73 %1015.6 hPa22.5 kmSouth (190°)33.3 km/hHaze
6:30 PM22 °C18 °C78 %1015.2 hPa10 kmSouth (190°)33.3 km/hMostly Cloudy
7:00 PM22 °C18 °C78 %1016.3 hPa10 kmSouth (190°)31.5 km/hMostly Cloudy
7:30 PM22 °C18 °C78 %1016.3 hPa10 kmSouth (170°)33.3 km/hMostly Cloudy
8:00 PM21.7 °C17.2 °C70 %1017.3 hPaSouth (180°)35.2 km/h
8:00 PM22 °C17 °C73 %1016.3 hPa10 kmSouth (180°)35.2 km/hMostly Cloudy
8:30 PM22 °C18 °C78 %1017.3 hPa10 kmSouth (170°)33.3 km/hMostly Cloudy
9:00 PM22 °C18 °C78 %1017.3 hPa10 kmSouth (170°)31.5 km/hMostly Cloudy
9:00 PM22.2 °C18.3 °C72 %1017.3 hPa22.5 kmSouth (170°)31.5 km/hHaze
9:30 PM22 °C17 °C73 %1017.3 hPa10 kmSouth (180°)33.3 km/hMostly Cloudy
10:00 PM22 °C18 °C78 %1017.3 hPa10 kmSouth (180°)29.6 km/hMostly Cloudy
10:30 PM22 °C18 °C78 %1017.3 hPa10 kmSouth (190°)29.6 km/hMostly Cloudy
11:00 PM21.7 °C17.2 °C70 %1017.9 hPaSouth (190°)27.8 km/h
11:00 PM22 °C17 °C73 %1017.3 hPa10 kmSouth (190°)27.8 km/hMostly Cloudy
11:30 PM21 °C18 °C83 %1017.3 hPa10 kmSouth (180°)33.3 km/hMostly Cloudy
Hourly data recorded from YSSY, located 0 kilometers away from Terrey Hills, New South Wales




STORIES FROM OUR PARTNERS